Location: Pitton
(51.0667°N, 1.7000°W)
Time: 02:26:36
(UTC+00:00)

Meteor 2-15 - Pass Details

Date: 17 September 2019
Orbit: 936 x 956 km, 82.5° (Epoch: 15 October)

Event Time Altitude Azimuth Distance (km) Brightness Sun altitude
Rises 19:10:42 0° 184° (S) 3,617 7.4 -9.1°
Reaches altitude 10° 19:13:11 10° 183° (S) 2,678 6.7 -9.5°
Maximum altitude 19:19:19 80° 98° (E) 977 4.4 -10.4°
Drops below altitude 10° 19:25:30 10° 13° (NNE) 2,698 6.9 -11.3°
Sets 19:28:00 0° 12° (NNE) 3,647 7.6 -11.7°
